レモン彗星

349P/Lemmon (2024)

English version
Home page
Updated on April 16, 2023

---------------------------------------------------------------------

・ プロフィール

・ 軌道要素

Epoch 2024 May 10.0 TT = JDT 2460440.5
T 2024 May 27.12496 TT                                  MPCW
q   2.5100943            (2000.0)            P               Q
n   0.14559830     Peri.  255.79139     -0.67294882     +0.73830249
a   3.5784792      Node   331.75040     -0.63641790     -0.60910071
e   0.2985584      Incl.    5.48836     -0.37697764     -0.28966491
P   6.77
From 105 observations 2010 Mar. 14-2018 Aug. 8, mean residual 0".5.

・ 光度変化

        m1 = 9.0 + 5 logΔ + 20.0 log r

---------------------------------------------------------------------

軌道要素はM.P.E.C. 2018-S50に掲載されたものです。
光度グラフはComet for Windowsで作成したものです。

---------------------------------------------------------------------

Copyright(C) Seiichi Yoshida (comet@aerith.net). All rights reserved.